Regional Weather Roundup
Issued by NWS

Home | Current Version | Previous Version | Graphics & Text | Print | Product List | Glossary On
Versions: 1 2 3 4 5 6 7 8 9 10 11 12 13 14 15 16 17 18 19 20 21 22 23 24 25 26 27 28 29 30 31 32 33 34 35 36 37 38 39 40 41 42 43 44 45 46 47 48 49 50
000
ASUS43 KDTX 211801
RWRMI
MICHIGAN HOURLY REGIONAL WEATHER ROUNDUP
NATIONAL WEATHER SERVICE DETROIT/PONTIAC MI
100 PM EST WED FEB 21 2018

NOTE: "FAIR" INDICATES FEW OR NO CLOUDS BELOW 12,000 FEET WITH NO
SIGNIFICANT WEATHER AND/OR OBSTRUCTION TO VISIBILITY.

MIZ047>049-052>055-059>063-066>070-074>076-081>083-211900-
SOUTHEAST LOWER MICHIGAN

CITY           SKY/WX    TMP DP  RH WIND       PRES   REMARKS
ADRIAN         CLOUDY    38  32  79 N9        30.47F WCI  31
6HR MIN TEMP:  35; 6HR MAX TEMP:  39; 6HR PCP:  0.12;

ANN ARBOR      CLOUDY    37  50 100 NW8       30.47R WCI  31
BAD AXE        CLOUDY    32  26  80 N13       30.50R WCI  22
6HR MIN TEMP:  31; 6HR MAX TEMP:  34;

CARO           CLOUDY    34  28  79 NW10      30.50R WCI  26
DETROIT CITY   CLOUDY    39  34  82 N9        30.46R WCI  33
6HR MIN TEMP:  38; 6HR MAX TEMP:  41; 6HR PCP:  0.14;

DETROIT        CLOUDY    39  34  82 N8        30.47R WCI  33
6HR MIN TEMP:  38; 6HR MAX TEMP:  42; 6HR PCP:  0.12;

FLINT          CLOUDY    34  29  82 N12       30.49R WCI  25
6HR MIN TEMP:  33; 6HR MAX TEMP:  36; 6HR PCP:  0.04;

GROSSE ILE     CLOUDY    39  36  87 NW7       30.46R WCI  34
6HR MIN TEMP:  38; 6HR MAX TEMP:  42; 6HR PCP:  0.06;

HILLSDALE      CLOUDY    34  32  93 NW10      30.45S WCI  26
HOWELL         CLOUDY    35  32  87 NW8       30.48R WCI  29
6HR MIN TEMP:  34; 6HR MAX TEMP:  36; 6HR PCP:  0.01;


CITY           SKY/WX    TMP DP  RH WIND       PRES   REMARKS
JACKSON        CLOUDY    37  30  75 NW9       30.47R WCI  30
6HR MIN TEMP:  33; 6HR MAX TEMP:  37; 6HR PCP:  0.02;

LAMBERTVILLE   CLOUDY    38  34  87 N6        30.46F WCI  33
6HR MIN TEMP:  37; 6HR MAX TEMP:  42;

LANSING        CLOUDY    34  28  79 NW10      30.51R WCI  26
6HR MIN TEMP:  33; 6HR MAX TEMP:  35; 6HR PCP:  0.01;

LAPEER         CLOUDY    37  31  81 N9        30.48R WCI  30
6HR MIN TEMP:  34; 6HR MAX TEMP:  37; 6HR PCP:  0.02;

MASON          CLOUDY    36  29  75 NW12      30.49R WCI  28
6HR MIN TEMP:  34; 6HR MAX TEMP:  37;

MONROE         CLOUDY    39  34  84 N8        30.45S WCI  33
6HR MIN TEMP:  38; 6HR MAX TEMP:  41; 6HR PCP:  0.07;

MT. CLEMENS    CLOUDY    37  37 100 N13       30.45R WCI  29
6HR MIN TEMP:  37; 6HR MAX TEMP:  40; 6HR PCP:  0.17;

PONTIAC        CLOUDY    37  32  82 N10       30.45R WCI  30
6HR MIN TEMP:  35; 6HR MAX TEMP:  37; 6HR PCP:  0.09;

PORT HOPE        N/A     31  23  72 N7        30.49R WCI  24
6HR MIN TEMP:  30; 6HR MAX TEMP:  33; 6HR PCP:  0.01;

PORT HURON     CLOUDY    32  28  86 N13       30.47S WCI  22
TRI CITIES     PTSUNNY   34  25  69 N8        30.51R WCI  27
6HR MIN TEMP:  33; 6HR MAX TEMP:  35; 6HR PCP: TRACE;

MIDLAND        FAIR      34  25  68 NW9       30.51R WCI  27
6HR MIN TEMP:  32; 6HR MAX TEMP:  35;

TROY           CLOUDY    39  33  80 NW9       30.48R WCI  33
SAGINAW HB     PTSUNNY   34  28  80 NW12      30.51R WCI  25
$$
MIZ043>046-050>051-056>058-064>065-071>073-077>080-211900-
SOUTHWEST LOWER MICHIGAN

CITY           SKY/WX    TMP DP  RH WIND       PRES   REMARKS
BATTLE CREEK   CLOUDY    33  29  85 N8        30.50R WCI  26
6HR MIN TEMP:  31; 6HR MAX TEMP:  33; 6HR PCP: TRACE;

BENTON HARBOR  CLOUDY    32  24  72 VRB7      30.56R WCI  26
6HR MIN TEMP:  30; 6HR MAX TEMP:  32;

BIG RAPIDS     PTSUNNY   30  19  64 N6        30.50S WCI  24
6HR MIN TEMP:  28; 6HR MAX TEMP:  30;

COLDWATER      CLOUDY    34  33  94 N9        30.49S WCI  27
6HR MIN TEMP:  32; 6HR MAX TEMP:  34;

HOLLAND        CLOUDY    32  25  75 N7        30.53S WCI  26
6HR MIN TEMP:  31; 6HR MAX TEMP:  33;

GRAND RAPIDS   CLOUDY    34  27  75 NW9       30.51R WCI  27
IONIA          CLOUDY    33  28  81 NW9       30.50S WCI  25
6HR MIN TEMP:  32; 6HR MAX TEMP:  33;

KALAMAZOO      CLOUDY    34  28  79 N10       30.51R WCI  26
6HR MIN TEMP:  32; 6HR MAX TEMP:  34; 6HR PCP: TRACE;

LUDINGTON      FAIR      28  20  72 NW7       30.55S WCI  20
6HR MIN TEMP:  27; 6HR MAX TEMP:  29;

MARSHALL       CLOUDY    33  32  94 NW5       30.48F WCI  29
6HR MIN TEMP:  32; 6HR MAX TEMP:  33;

MOUNT PLEASANT PTSUNNY   35  24  65 N6        30.50S WCI  29
6HR MIN TEMP:  32; 6HR MAX TEMP:  35;

MUSKEGON       CLOUDY    32  21  64 N9        30.55R WCI  24
6HR MIN TEMP:  30; 6HR MAX TEMP:  32;

SOUTH HAVEN    CLOUDY    31  27  82 N10G18    30.54S WCI  23
$$
MIZ016>042-211900-
NORTHERN LOWER MICHIGAN

CITY           SKY/WX    TMP DP  RH WIND       PRES   REMARKS
ALPENA         PTSUNNY   26  16  65 VRB7      30.52R WCI  18
6HR MIN TEMP:  25; 6HR MAX TEMP:  27;

BEAVER ISLAND  CLOUDY    25  15  65 W8        30.54R WCI  16
6HR MIN TEMP:  22; 6HR MAX TEMP:  25;

BELLAIRE       CLOUDY    26  19  75 W3        30.54S
6HR MIN TEMP:  25; 6HR MAX TEMP:  26;

CADILLAC       PTSUNNY   27  20  73 NW6       30.47F WCI  21
CHARLEVOIX     CLOUDY    24  17  73 W8        30.57S WCI  16
6HR MIN TEMP:  24; 6HR MAX TEMP:  25;

FRANKFORT      PTSUNNY   27  18  69 NW5       30.55F WCI  22
GAYLORD        CLOUDY    22  17  81 NW7       30.47R WCI  13
6HR MIN TEMP:  21; 6HR MAX TEMP:  23;

GRAYLING       PTSUNNY   25  17  71 N10       30.48R WCI  15
6HR MIN TEMP:  24; 6HR MAX TEMP:  26;

HARBOR SPRINGS CLOUDY    24  15  68 W7        30.53R WCI  16
HOUGHTON LAKE  PTSUNNY   27  18  69 W8        30.49S WCI  19
6HR MIN TEMP:  25; 6HR MAX TEMP:  27;

MANISTEE       FAIR      28  18  66 NW9       30.55S WCI  19
OSCODA         PTSUNNY   34  21  59 NW9       30.49S WCI  27
6HR MIN TEMP:  29; 6HR MAX TEMP:  34;

PELLSTON       CLOUDY    24  15  68 NW12      30.52R WCI  13
6HR MIN TEMP:  21; 6HR MAX TEMP:  24;

ROGERS CITY    CLOUDY    25  16  67 NW10      30.52S WCI  15
TRAVERSE CITY  PTSUNNY   27  17  66 NW7       30.53R WCI  19
6HR MIN TEMP:  26; 6HR MAX TEMP:  28;

$$
MIZ007>008-015-211900-
EASTERN UPPER MICHIGAN

CITY           SKY/WX    TMP DP  RH WIND       PRES   REMARKS
KINROSS        FLURRIES  25  16  68 CALM      30.49R
6HR MIN TEMP:  16; 6HR MAX TEMP:  26; 6HR PCP: TRACE;

MACKINAC ISLAN CLOUDY    23  16  74 W13       30.50S WCI  11
6HR MIN TEMP:  19; 6HR MAX TEMP:  23;

NEWBERRY       CLOUDY    22  14  72 W8        30.48S WCI  12
6HR MIN TEMP:  17; 6HR MAX TEMP:  22;

S. S. MARIE    CLOUDY    23  15  71 W5        30.49R WCI  17
6HR MIN TEMP:  18; 6HR MAX TEMP:  23; 6HR PCP: TRACE;

MUNISING         N/A     22  14  71 VRB6      30.53R WCI  14
6HR MIN TEMP:  19; 6HR MAX TEMP:  22;

$$
MIZ004>006-011>014-085-211900-
CENTRAL UPPER MICHIGAN

CITY           SKY/WX    TMP DP  RH WIND       PRES   REMARKS
MANISTIQUE     PTSUNNY   22  10  59 W6        30.52S WCI  15
6HR MIN TEMP:  18; 6HR MAX TEMP:  24;

ESCANABA       FAIR      23  14  68 SW5       30.54S WCI  17
6HR MIN TEMP:  14; 6HR MAX TEMP:  26; 6HR PCP: TRACE;

MENOMINEE      FAIR      27  11  51 VRB6      30.56S WCI  20
6HR MIN TEMP:  16; 6HR MAX TEMP:  27;

SAWYER-GWINN   PTSUNNY   18   9  68 W6        30.48R WCI   9
$$
MIZ001>003-009>011-084-211900-
WESTERN UPPER MICHIGAN

CITY           SKY/WX    TMP DP  RH WIND       PRES   REMARKS
IRON MOUNTAIN  FAIR      19   6  57 W7        30.49R WCI  10
6HR MIN TEMP:  10; 6HR MAX TEMP:  19;

HOUGHTON       PTSUNNY   16   7  67 W12       30.48R WCI   3
6HR MIN TEMP:  12; 6HR MAX TEMP:  16; 6HR PCP: TRACE;

COPPER HARBOR    N/A     19  10  68 VRB3      30.50R
6HR MIN TEMP:  16; 6HR MAX TEMP:  21; 6HR PCP:  0.01;

IRONWOOD       FAIR      17   4  56 W12       30.51R WCI   4
6HR MIN TEMP:   0; 6HR MAX TEMP:  17;

$$

ABBREVIATIONS USED IN REMARKS
   TC - TEMPERATURE IN CELSIUS
  WCI - WIND CHILL INDEX
   HX - HEAT INDEX
  VSB - VISIBILITY





USA.gov is the U.S. government's official web portal to all federal, state and local government web resources and services.